When you browse on this site, cookies collect data to enhance your experience and personalize the content and advertising you see.
Visit our Privacy Policy to learn more. By continuing to use the site, you agree to this use of cookies and data.
  • In Hungary
  • List of Countries
  • For 7 days
  • Water Temperature
  • Weather Map
  • News
  • Weather Widgets
  • user-avatar
    Login

    Hourly Weather Monastyrschino

    Today, 23 September, Monday

    Time Temperature Precipitation Wind Pressure Humidity
    00:00 -1°C° 0 mm 6 mps 738 mmHg 84%
    01:00 -1°C° 0 mm 6 mps 739 mmHg 85%
    02:00 -1°C° 0 mm 6 mps 740 mmHg 86%
    03:00 -1°C° 0 mm 6 mps 740 mmHg 86%
    04:00 0°C° 0 mm 5 mps 741 mmHg 84%
    05:00 +1°C° 0 mm 5 mps 741 mmHg 82%
    06:00 +1°C° 0 mm 5 mps 742 mmHg 79%
    07:00 +2°C° 0 mm 5 mps 742 mmHg 76%
    08:00 +2°C° 0 mm 6 mps 743 mmHg 72%
    09:00 +3°C° 0 mm 6 mps 744 mmHg 68%
    10:00 +4°C° 0 mm 6 mps 744 mmHg 66%
    11:00 +5°C° 0 mm 6 mps 744 mmHg 63%
    12:00 +5°C° 0 mm 6 mps 744 mmHg 60%
    13:00 +7°C° 0 mm 6 mps 745 mmHg 59%
    14:00 +7°C° 0 mm 6 mps 745 mmHg 57%
    15:00 +8°C° 0 mm 6 mps 745 mmHg 56%
    16:00 +7°C° 0 mm 6 mps 745 mmHg 57%
    17:00 +7°C° 0 mm 5 mps 745 mmHg 59%
    18:00 +6°C° 0 mm 5 mps 745 mmHg 60%
    19:00 +5°C° 0 mm 4 mps 746 mmHg 63%
    20:00 +4°C° 0 mm 4 mps 746 mmHg 66%
    21:00 +3°C° 0 mm 4 mps 746 mmHg 69%
    22:00 +3°C° 0 mm 3 mps 746 mmHg 71%
    23:00 +2°C° 0 mm 3 mps 746 mmHg 73%

    Tomorrow, 24 September, Tuesday

    Time Temperature Precipitation Wind Pressure Humidity
    00:00 +1°C° 0 mm 3 mps 746 mmHg 75%
    01:00 +1°C° 0 mm 3 mps 747 mmHg 76%
    02:00 +1°C° 0 mm 3 mps 747 mmHg 77%
    03:00 0°C° 0 mm 3 mps 747 mmHg 78%
    04:00 0°C° 0 mm 3 mps 747 mmHg 80%
    05:00 0°C° 0 mm 3 mps 747 mmHg 83%
    06:00 0°C° 0 mm 3 mps 747 mmHg 86%
    07:00 +1°C° 0 mm 3 mps 747 mmHg 80%
    08:00 +2°C° 0 mm 3 mps 747 mmHg 73%
    09:00 +3°C° 0 mm 4 mps 747 mmHg 67%
    10:00 +4°C° 0 mm 4 mps 747 mmHg 65%
    11:00 +4°C° 0 mm 4 mps 747 mmHg 63%
    12:00 +5°C° 0 mm 4 mps 747 mmHg 61%
    13:00 +5°C° 0.1 mm 4 mps 747 mmHg 62%
    14:00 +6°C° 0.1 mm 4 mps 747 mmHg 62%
    15:00 +6°C° 0.1 mm 4 mps 747 mmHg 62%
    16:00 +5°C° 0 mm 4 mps 747 mmHg 64%
    17:00 +5°C° 0 mm 3 mps 746 mmHg 67%
    18:00 +4°C° 0 mm 3 mps 746 mmHg 70%
    19:00 +4°C° 0 mm 2 mps 747 mmHg 74%
    20:00 +4°C° 0 mm 2 mps 747 mmHg 78%
    21:00 +3°C° 0 mm 2 mps 747 mmHg 82%
    22:00 +2°C° 0 mm 2 mps 747 mmHg 84%
    23:00 +2°C° 0 mm 2 mps 747 mmHg 86%

    Day after tomorrow, 25 September, Wednesday

    Time Temperature Precipitation Wind Pressure Humidity
    00:00 +2°C° 0 mm 2 mps 747 mmHg 88%
    01:00 +1°C° 0 mm 2 mps 747 mmHg 89%
    02:00 +1°C° 0 mm 2 mps 748 mmHg 90%
    03:00 +1°C° 0 mm 2 mps 748 mmHg 91%
    04:00 +1°C° 0 mm 2 mps 748 mmHg 92%
    05:00 +1°C° 0 mm 2 mps 748 mmHg 93%
    06:00 -1°C° 0 mm 2 mps 748 mmHg 93%
    07:00 +2°C° 0 mm 2 mps 748 mmHg 88%
    08:00 +3°C° 0 mm 2 mps 748 mmHg 82%
    09:00 +4°C° 0 mm 2 mps 748 mmHg 77%
    10:00 +6°C° 0 mm 2 mps 748 mmHg 71%
    11:00 +7°C° 0 mm 3 mps 748 mmHg 66%
    12:00 +8°C° 0 mm 3 mps 748 mmHg 60%
    13:00 +8°C° 0 mm 3 mps 748 mmHg 58%
    14:00 +9°C° 0 mm 3 mps 748 mmHg 56%
    15:00 +9°C° 0 mm 3 mps 748 mmHg 54%
    16:00 +8°C° 0 mm 2 mps 748 mmHg 58%
    17:00 +7°C° 0 mm 2 mps 748 mmHg 62%
    18:00 +7°C° 0 mm 1 mps 747 mmHg 66%
    19:00 +7°C° 0 mm 1 mps 748 mmHg 67%
    20:00 +6°C° 0 mm 1 mps 748 mmHg 68%
    21:00 +6°C° 0 mm 1 mps 748 mmHg 68%
    22:00 +6°C° 0 mm 1 mps 748 mmHg 69%
    23:00 +6°C° 0 mm 1 mps 748 mmHg 70%

    26 September, Thursday

    Time Temperature Precipitation Wind Pressure Humidity
    00:00 +6°C° 0 mm 1 mps 748 mmHg 71%
    01:00 +6°C° 0 mm 1 mps 748 mmHg 73%
    02:00 +5°C° 0 mm 1 mps 748 mmHg 75%
    03:00 +5°C° 0 mm 1 mps 748 mmHg 77%
    04:00 +5°C° 0 mm 1 mps 748 mmHg 80%
    05:00 +4°C° 0 mm 1 mps 748 mmHg 82%
    06:00 +4°C° 0 mm 1 mps 748 mmHg 84%
    07:00 +5°C° 0 mm 1 mps 748 mmHg 79%
    08:00 +6°C° 0 mm 2 mps 749 mmHg 74%
    09:00 +7°C° 0 mm 2 mps 749 mmHg 69%
    10:00 +8°C° 0 mm 2 mps 749 mmHg 63%
    11:00 +9°C° 0 mm 2 mps 749 mmHg 57%
    12:00 +10°C° 0 mm 2 mps 749 mmHg 51%
    13:00 +12°C° 0 mm 2 mps 749 mmHg 49%
    14:00 +12°C° 0 mm 2 mps 748 mmHg 47%
    15:00 +13°C° 0 mm 2 mps 748 mmHg 44%
    16:00 +12°C° 0 mm 2 mps 748 mmHg 48%
    17:00 +11°C° 0 mm 1 mps 748 mmHg 52%
    18:00 +10°C° 0 mm 1 mps 747 mmHg 56%
    19:00 +9°C° 0 mm 1 mps 747 mmHg 57%
    20:00 +9°C° 0 mm 1 mps 748 mmHg 58%
    21:00 +8°C° 0 mm 1 mps 748 mmHg 58%
    22:00 +9°C° 0 mm 1 mps 748 mmHg 59%
    23:00 +9°C° 0 mm 1 mps 748 mmHg 59%

    27 September, Friday

    Time Temperature Precipitation Wind Pressure Humidity
    00:00 +8°C° 0 mm 2 mps 748 mmHg 60%
    01:00 +8°C° 0.3 mm 1 mps 747 mmHg 68%
    02:00 +8°C° 0.3 mm 1 mps 747 mmHg 77%
    03:00 +8°C° 0.3 mm 1 mps 747 mmHg 85%
    04:00 +8°C° 0.1 mm 1 mps 747 mmHg 85%
    05:00 +8°C° 0.1 mm 1 mps 747 mmHg 85%
    06:00 +7°C° 0.1 mm 2 mps 747 mmHg 86%
    07:00 +7°C° 0.2 mm 2 mps 747 mmHg 85%
    08:00 +7°C° 0.2 mm 2 mps 747 mmHg 83%
    09:00 +7°C° 0.2 mm 2 mps 747 mmHg 82%
    10:00 +7°C° 0.1 mm 2 mps 747 mmHg 81%
    11:00 +8°C° 0.1 mm 2 mps 747 mmHg 80%
    12:00 +8°C° 0.1 mm 2 mps 747 mmHg 79%
    13:00 +9°C° 0 mm 1 mps 747 mmHg 79%
    14:00 +10°C° 0 mm 1 mps 747 mmHg 78%
    15:00 +10°C° 0 mm 1 mps 747 mmHg 77%
    16:00 +10°C° 0 mm 1 mps 747 mmHg 77%
    17:00 +10°C° 0 mm 1 mps 747 mmHg 78%
    18:00 +8°C° 0 mm 0 mps 747 mmHg 78%
    19:00 +8°C° 0 mm 0 mps 747 mmHg 79%
    20:00 +8°C° 0 mm 0 mps 747 mmHg 80%
    21:00 +9°C° 0 mm 1 mps 748 mmHg 81%
    22:00 +9°C° 0 mm 1 mps 748 mmHg 81%
    23:00 +9°C° 0 mm 1 mps 748 mmHg 81%

    28 September, Saturday

    Time Temperature Precipitation Wind Pressure Humidity
    00:00 +9°C° 0 mm 1 mps 748 mmHg 81%
    01:00 +9°C° 0 mm 1 mps 748 mmHg 82%
    02:00 +9°C° 0 mm 1 mps 748 mmHg 82%
    03:00 +8°C° 0 mm 1 mps 748 mmHg 82%
    04:00 +8°C° 0 mm 1 mps 748 mmHg 83%
    05:00 +8°C° 0 mm 1 mps 748 mmHg 83%
    06:00 +8°C° 0 mm 1 mps 748 mmHg 84%
    07:00 +9°C° 0 mm 1 mps 749 mmHg 81%
    08:00 +9°C° 0 mm 2 mps 749 mmHg 78%
    09:00 +9°C° 0 mm 2 mps 749 mmHg 74%
    10:00 +12°C° 0 mm 2 mps 749 mmHg 69%
    11:00 +13°C° 0 mm 2 mps 749 mmHg 64%
    12:00 +13°C° 0 mm 3 mps 750 mmHg 59%
    13:00 +13°C° 0 mm 3 mps 749 mmHg 57%
    14:00 +13°C° 0 mm 3 mps 749 mmHg 56%
    15:00 +14°C° 0 mm 3 mps 749 mmHg 55%
    16:00 +13°C° 0 mm 3 mps 748 mmHg 57%
    17:00 +12°C° 0 mm 3 mps 748 mmHg 60%
    18:00 +12°C° 0 mm 2 mps 748 mmHg 62%
    19:00 +11°C° 0 mm 3 mps 748 mmHg 62%
    20:00 +11°C° 0 mm 3 mps 748 mmHg 61%
    21:00 +11°C° 0 mm 3 mps 748 mmHg 61%
    22:00 +10°C° 0 mm 3 mps 748 mmHg 61%
    23:00 +10°C° 0 mm 3 mps 748 mmHg 62%
    Show more